Weather History for Muncie, IN

Change the Weather History Date:

Sunday, April 28, 2013

  Actual Average Record
Temperature  
Mean Temperature 59 °F 56 °F  
Max Temperature 63 °F 66 °F 84 °F (1986)
Min Temperature 54 °F 46 °F 30 °F (1992)
Degree Days  
Heating Degree Days 6 10  
Month to date heating degree days 362 403  
Since 1 July heating degree days 5281 5573  
Cooling Degree Days 0 1  
Month to date cooling degree days 10 11  
Year to date cooling degree days 10 12  
Growing Degree Days 8 (Base 50)    
Moisture  
Dew Point 54 °F    
Average Humidity 85    
Maximum Humidity 93    
Minimum Humidity 77    
Precipitation  
Precipitation 0.37 in 0.12 in 0.98 in (1975)
Month to date precipitation 5.77 3.42  
Year to date precipitation 12.67 10.91  
Sea Level Pressure  
Sea Level Pressure 29.87 in    
Wind  
Wind Speed 7 mph (SSW)    
Max Wind Speed 14 mph    
Max Gust Speed 16 mph    
Visibility 6 miles    
Events Rain    
T = Trace of Precipitation, MM = Missing Value Source: NWS Daily Summary

Daily Weather History Graph

Daily Weather History Graph

Search for Another Location

Airport:

Trip Planner

Search our weather history database for the weather conditions in past years. The results will help you decide how hot, cold, wet, or windy it might be!

Date:

Astronomy

Apr. 28, 2013 Rise Set
Actual Time 6:44 AM EDT 8:33 PM EDT
Civil Twilight 6:15 AM EDT 9:03 PM EDT
Nautical Twilight 5:40 AM EDT 9:38 PM EDT
Astronomical Twilight 5:02 AM EDT 10:17 PM EDT
Moon No Moon Rise 9:00 AM EDT (4/28)
Length of Visible Light 14h 47m
Length of Day
13h 49m
Waning Gibbous, 89% of the Moon is Illuminated
Apr 28
Waning Gibbous
May 2
Last Quarter
May 9
New
May 18
First Quarter
May 25
Full

Hourly Weather History & Observations

Time (EDT) Temp. Dew Point Humidity Pressure Visibility Wind Dir Wind Speed Gust Speed Precip Events Conditions
12:53 AM 55.9 °F 48.9 °F 77% 30.00 in 10.0 mi SE 6.9 mph - 0.00 in   Mostly Cloudy
1:51 AM 55.4 °F 50.0 °F 82% 29.99 in 10.0 mi SE 6.9 mph - N/A   Overcast
1:53 AM 55.9 °F 50.0 °F 80% 29.97 in 10.0 mi SE 5.8 mph - N/A   Overcast
2:53 AM 55.9 °F 51.1 °F 84% 29.93 in 10.0 mi ESE 6.9 mph - 0.02 in Rain Light Rain
3:53 AM 55.0 °F 51.1 °F 86% 29.91 in 7.0 mi ESE 6.9 mph - 0.03 in Rain Light Rain
4:11 AM 55.4 °F 51.8 °F 88% 29.93 in 5.0 mi East 5.8 mph - 0.01 in Rain Light Rain
4:42 AM 53.6 °F 51.8 °F 94% 29.92 in 2.5 mi ESE 5.8 mph - 0.06 in Rain Rain
4:49 AM 53.6 °F 51.8 °F 94% 29.92 in 3.0 mi ESE 4.6 mph - 0.08 in Rain Rain
4:53 AM 54.0 °F 52.0 °F 93% 29.90 in 3.0 mi ESE 4.6 mph - 0.09 in Rain Rain
5:17 AM 55.4 °F 51.8 °F 88% 29.91 in 2.5 mi ESE 6.9 mph - 0.09 in Rain Heavy Rain
5:28 AM 55.4 °F 51.8 °F 88% 29.90 in 4.0 mi SE 8.1 mph - 0.11 in Rain Light Rain
5:53 AM 55.0 °F 52.0 °F 89% 29.89 in 4.0 mi SE 8.1 mph - 0.12 in Rain Light Rain
6:53 AM 55.9 °F 53.1 °F 90% 29.88 in 7.0 mi SSE 8.1 mph - 0.06 in   Overcast
7:25 AM 55.4 °F 53.6 °F 94% 29.90 in 2.5 mi SSE 10.4 mph - N/A   Overcast
7:37 AM 55.4 °F 53.6 °F 94% 29.90 in 3.0 mi SSE 6.9 mph - N/A   Overcast
7:44 AM 55.4 °F 53.6 °F 94% 29.90 in 2.5 mi SSE 5.8 mph - N/A   Overcast
7:49 AM 55.4 °F 53.6 °F 94% 29.90 in 1.8 mi SSE 4.6 mph - N/A   Overcast
7:53 AM 55.9 °F 53.1 °F 90% 29.88 in 1.8 mi SSE 6.9 mph - N/A   Overcast
8:03 AM 55.4 °F 53.6 °F 94% 29.89 in 2.5 mi SSE 8.1 mph - N/A   Overcast
8:14 AM 55.4 °F 53.6 °F 94% 29.89 in 4.0 mi SSE 5.8 mph - N/A   Overcast
8:35 AM 57.2 °F 53.6 °F 88% 29.89 in 8.0 mi SSE 5.8 mph - N/A   Overcast
9:04 AM 57.2 °F 53.6 °F 88% 29.89 in 9.0 mi SSE 5.8 mph - N/A   Overcast
9:53 AM 57.0 °F 54.0 °F 89% 29.88 in 3.0 mi South 5.8 mph - 0.00 in   Overcast
10:01 AM 57.2 °F 53.6 °F 88% 29.88 in 2.5 mi SSE 5.8 mph - 0.01 in Rain Light Rain
10:11 AM 57.2 °F 53.6 °F 88% 29.88 in 4.0 mi SSE 4.6 mph - 0.01 in Rain Light Rain
10:22 AM 57.2 °F 53.6 °F 88% 29.88 in 5.0 mi SSE 5.8 mph - 0.03 in Rain Light Rain
10:31 AM 57.2 °F 53.6 °F 88% 29.88 in 6.0 mi SE 6.9 mph - 0.03 in Rain Light Rain
10:53 AM 57.9 °F 54.0 °F 87% 29.87 in 9.0 mi SSE 5.8 mph - 0.03 in   Overcast
11:09 AM 57.2 °F 53.6 °F 88% 29.88 in 6.0 mi SSE 5.8 mph - N/A   Overcast
11:21 AM 57.2 °F 55.4 °F 94% 29.88 in 4.0 mi SSE 5.8 mph - N/A   Overcast
11:35 AM 57.2 °F 55.4 °F 94% 29.88 in 1.8 mi South 6.9 mph - N/A   Overcast
11:53 AM 57.9 °F 55.0 °F 90% 29.86 in 1.5 mi South 6.9 mph - 0.00 in Rain Light Rain
12:11 PM 57.2 °F 55.4 °F 94% 29.88 in 2.5 mi South 4.6 mph - 0.00 in   Overcast
12:34 PM 59.0 °F 55.4 °F 88% 29.87 in 4.0 mi South 6.9 mph - 0.01 in   Overcast
12:53 PM 59.0 °F 55.0 °F 87% 29.85 in 3.0 mi South 8.1 mph - 0.01 in   Overcast
1:02 PM 59.0 °F 55.4 °F 88% 29.86 in 2.0 mi South 9.2 mph - N/A   Overcast
1:18 PM 60.8 °F 55.4 °F 82% 29.86 in 4.0 mi South 6.9 mph - 0.00 in Rain Light Rain
1:53 PM 60.1 °F 55.9 °F 86% 29.84 in 9.0 mi SSW 6.9 mph - 0.00 in   Overcast
2:00 PM 60.8 °F 55.4 °F 82% 29.85 in 8.0 mi SSW 5.8 mph - N/A   Overcast
2:28 PM 60.8 °F 55.4 °F 82% 29.84 in 10.0 mi SSW 6.9 mph - 0.00 in   Overcast
2:53 PM 61.0 °F 55.9 °F 83% 29.83 in 10.0 mi SSW 9.2 mph - 0.00 in   Overcast
3:46 PM 62.6 °F 55.4 °F 77% 29.84 in 10.0 mi SW 6.9 mph - N/A   Overcast
3:53 PM 62.1 °F 55.9 °F 80% 29.83 in 10.0 mi SW 8.1 mph - N/A   Overcast
4:10 PM 62.6 °F 55.4 °F 77% 29.84 in 10.0 mi SW 5.8 mph - N/A   Overcast
4:53 PM 62.1 °F 57.0 °F 84% 29.82 in 9.0 mi West 10.4 mph - N/A   Overcast
5:29 PM 60.8 °F 55.4 °F 82% 29.83 in 10.0 mi West 8.1 mph - N/A   Overcast
5:43 PM 60.8 °F 55.4 °F 82% 29.84 in 10.0 mi West 11.5 mph - N/A   Overcast
5:50 PM 60.8 °F 55.4 °F 82% 29.84 in 10.0 mi West 8.1 mph - N/A   Overcast
5:53 PM 61.0 °F 55.9 °F 83% 29.83 in 10.0 mi West 9.2 mph - N/A   Overcast
6:11 PM 60.8 °F 55.4 °F 82% 29.84 in 10.0 mi West 9.2 mph - N/A   Overcast
6:19 PM 60.8 °F 55.4 °F 82% 29.84 in 10.0 mi West 9.2 mph - N/A   Overcast
6:32 PM 60.8 °F 55.4 °F 82% 29.84 in 10.0 mi WNW 9.2 mph - N/A   Mostly Cloudy
6:44 PM 60.8 °F 55.4 °F 82% 29.84 in 9.0 mi West 5.8 mph - N/A   Overcast
6:50 PM 60.8 °F 55.4 °F 82% 29.84 in 8.0 mi West 4.6 mph - N/A   Overcast
6:53 PM 60.1 °F 55.9 °F 86% 29.83 in 8.0 mi West 6.9 mph - N/A   Overcast
7:02 PM 60.8 °F 55.4 °F 82% 29.84 in 9.0 mi West 4.6 mph - N/A   Overcast
7:11 PM 60.8 °F 55.4 °F 82% 29.84 in 3.0 mi WNW 9.2 mph - 0.01 in Rain Light Rain
7:22 PM 60.8 °F 55.4 °F 82% 29.84 in 6.0 mi WNW 5.8 mph - 0.01 in   Overcast
7:36 PM 60.8 °F 55.4 °F 82% 29.84 in 10.0 mi West 4.6 mph - 0.01 in   Overcast
7:53 PM 60.1 °F 55.9 °F 86% 29.83 in 10.0 mi West 4.6 mph - 0.01 in   Overcast
8:20 PM 60.8 °F 55.4 °F 82% 29.85 in 10.0 mi West 4.6 mph - N/A   Overcast
8:30 PM 59.0 °F 55.4 °F 88% 29.85 in 10.0 mi West 6.9 mph - N/A   Overcast
8:53 PM 59.0 °F 55.9 °F 90% 29.84 in 10.0 mi West 5.8 mph - N/A   Overcast
9:12 PM 59.0 °F 55.4 °F 88% 29.86 in 7.0 mi West 4.6 mph - N/A   Overcast
9:53 PM 57.9 °F 55.0 °F 90% 29.86 in 8.0 mi SW 3.5 mph - N/A   Overcast
10:07 PM 57.2 °F 55.4 °F 94% 29.87 in 7.0 mi SW 3.5 mph - N/A   Overcast
10:30 PM 57.2 °F 55.4 °F 94% 29.88 in 6.0 mi SW 4.6 mph - N/A   Overcast
10:41 PM 57.2 °F 55.4 °F 94% 29.88 in 6.0 mi SSW 4.6 mph - N/A   Overcast
10:53 PM 57.9 °F 55.0 °F 90% 29.88 in 6.0 mi SW 3.5 mph - N/A   Overcast
11:08 PM 57.2 °F 55.4 °F 94% 29.89 in 7.0 mi SW 5.8 mph - N/A   Overcast
11:14 PM 57.2 °F 55.4 °F 94% 29.89 in 6.0 mi SW 4.6 mph - N/A   Overcast
11:22 PM 57.2 °F 55.4 °F 94% 29.89 in 6.0 mi SW 4.6 mph - N/A   Overcast
11:53 PM 57.9 °F 55.0 °F 90% 29.87 in 4.0 mi WSW 5.8 mph - 0.00 in   Overcast